Weather History for Lamoni, IA

Change the Weather History Date:

Sunday, May 26, 2013

  Actual Average Record
Temperature  
Mean Temperature 66 °F 64 °F  
Max Temperature 78 °F 75 °F 90 °F (1967)
Min Temperature 54 °F 54 °F 42 °F (1992)
Degree Days  
Heating Degree Days 0 3  
Month to date heating degree days 180 153  
Since 1 July heating degree days 6060 6048  
Cooling Degree Days 1 2  
Month to date cooling degree days 43 32  
Year to date cooling degree days 55 39  
Growing Degree Days 15 (Base 50)    
Moisture  
Dew Point 58 °F    
Average Humidity 81    
Maximum Humidity 93    
Minimum Humidity 69    
Precipitation  
Precipitation 0.28 in 0.17 in 1.10 in (1987)
Month to date precipitation 3.03 4.43  
Sea Level Pressure  
Sea Level Pressure 30.01 in    
Wind  
Wind Speed 9 mph (ESE)    
Max Wind Speed 24 mph    
Max Gust Speed 31 mph    
Visibility 9 miles    
Events Rain , Thunderstorm    
T = Trace of Precipitation, MM = Missing Value Source: NWS Daily Summary

Daily Weather History Graph

Daily Weather History Graph

Search for Another Location

Airport:

Trip Planner

Search our weather history database for the weather conditions in past years. The results will help you decide how hot, cold, wet, or windy it might be!

Date:

Astronomy

May. 26, 2013 Rise Set
Actual Time 5:49 AM CDT 8:35 PM CDT
Civil Twilight 5:17 AM CDT 9:08 PM CDT
Nautical Twilight 4:37 AM CDT 9:48 PM CDT
Astronomical Twilight 3:51 AM CDT 10:34 PM CDT
Moon 10:23 PM CDT (5/26) 7:19 AM CDT (5/26)
Length of Visible Light 15h 50m
Length of Day
14h 45m
Waning Gibbous, 96% of the Moon is Illuminated
May 26
Waning Gibbous
May 31
Last Quarter
Jun 8
New
Jun 16
First Quarter
Jun 23
Full

Hourly Weather History & Observations

Time (CDT) Temp. Dew Point Humidity Pressure Visibility Wind Dir Wind Speed Gust Speed Precip Events Conditions
12:53 AM 55.0 °F 51.1 °F 86% 30.10 in 10.0 mi East 8.1 mph - N/A   Mostly Cloudy
1:02 AM 55.4 °F 51.8 °F 88% 30.10 in 10.0 mi East 8.1 mph - N/A   Scattered Clouds
1:15 AM 53.6 °F 51.8 °F 94% 30.10 in 10.0 mi East 8.1 mph - N/A   Mostly Cloudy
1:26 AM 55.4 °F 51.8 °F 88% 30.10 in 10.0 mi ESE 6.9 mph - N/A   Mostly Cloudy
1:50 AM 53.6 °F 51.8 °F 94% 30.09 in 10.0 mi ESE 5.8 mph - N/A   Partly Cloudy
1:53 AM 54.0 °F 51.1 °F 90% 30.09 in 10.0 mi Variable 5.8 mph - N/A   Partly Cloudy
2:24 AM 53.6 °F 51.8 °F 94% 30.07 in 8.0 mi ESE 5.8 mph - N/A   Mostly Cloudy
2:36 AM 53.6 °F 51.8 °F 94% 30.08 in 7.0 mi East 5.8 mph - N/A   Mostly Cloudy
2:53 AM 54.0 °F 52.0 °F 93% 30.08 in 7.0 mi ESE 5.8 mph - N/A   Mostly Cloudy
3:02 AM 55.4 °F 51.8 °F 88% 30.08 in 7.0 mi ESE 5.8 mph - N/A   Overcast
3:53 AM 55.0 °F 52.0 °F 89% 30.07 in 7.0 mi East 8.1 mph - N/A   Overcast
4:53 AM 55.0 °F 52.0 °F 89% 30.05 in 7.0 mi ESE 8.1 mph - N/A   Mostly Cloudy
5:53 AM 54.0 °F 52.0 °F 93% 30.05 in 6.0 mi East 5.8 mph - N/A   Overcast
6:44 AM 55.4 °F 51.8 °F 88% 30.05 in 5.0 mi ESE 8.1 mph - N/A   Overcast
6:53 AM 55.0 °F 52.0 °F 89% 30.05 in 5.0 mi ESE 8.1 mph - N/A   Overcast
7:53 AM 55.9 °F 53.1 °F 90% 30.07 in 7.0 mi ESE 5.8 mph - N/A   Overcast
8:36 AM 57.2 °F 53.6 °F 88% 30.06 in 8.0 mi East 8.1 mph - N/A   Overcast
8:53 AM 57.9 °F 54.0 °F 87% 30.06 in 9.0 mi ESE 10.4 mph 17.3 mph N/A   Overcast
9:49 AM 62.6 °F 55.4 °F 77% 30.06 in 10.0 mi Variable 6.9 mph - N/A   Overcast
9:53 AM 62.1 °F 55.9 °F 80% 30.06 in 10.0 mi Variable 3.5 mph - N/A   Overcast
10:06 AM 62.6 °F 57.2 °F 82% 30.06 in 10.0 mi East 5.8 mph - N/A   Overcast
10:48 AM 62.6 °F 57.2 °F 82% 30.05 in 10.0 mi East 8.1 mph - N/A   Overcast
10:53 AM 64.0 °F 57.0 °F 78% 30.05 in 10.0 mi East 9.2 mph - N/A   Overcast
11:53 AM 64.0 °F 57.9 °F 80% 30.05 in 10.0 mi ESE 9.2 mph - N/A   Overcast
12:06 PM 64.4 °F 57.2 °F 77% 30.05 in 10.0 mi East 8.1 mph 16.1 mph N/A   Overcast
12:53 PM 68.0 °F 61.0 °F 78% 30.03 in 10.0 mi ESE 8.1 mph - N/A   Overcast
1:53 PM 73.9 °F 64.9 °F 73% 30.00 in 10.0 mi SE 6.9 mph - 0.00 in   Scattered Clouds
2:53 PM 77.0 °F 66.9 °F 71% 29.98 in 10.0 mi ESE 9.2 mph 17.3 mph N/A   Clear
3:53 PM 77.0 °F 66.9 °F 71% 29.97 in 10.0 mi ESE 4.6 mph - N/A   Mostly Cloudy
4:41 PM 75.2 °F 66.2 °F 73% 29.95 in 10.0 mi SE 9.2 mph 17.3 mph N/A Thunderstorm Scattered Clouds
4:53 PM 75.9 °F 66.9 °F 74% 29.93 in 10.0 mi SE 5.8 mph - N/A   Scattered Clouds
5:53 PM 75.0 °F 66.9 °F 76% 29.94 in 10.0 mi East 9.2 mph - 0.00 in   Mostly Cloudy
6:46 PM 73.4 °F 66.2 °F 78% 29.93 in 10.0 mi East 11.5 mph 16.1 mph N/A Thunderstorm Mostly Cloudy
6:53 PM 73.9 °F 66.9 °F 79% 29.93 in 10.0 mi East 9.2 mph 16.1 mph N/A Thunderstorm Overcast
7:53 PM 71.1 °F 66.9 °F 87% 29.93 in 9.0 mi East 5.8 mph - 0.00 in Thunderstorm Thunderstorm
8:13 PM 69.8 °F 66.2 °F 88% 29.97 in 9.0 mi East 8.1 mph - 0.00 in Rain , Thunderstorm Light Thunderstorms and Rain
8:23 PM 69.8 °F 66.2 °F 88% 29.98 in 9.0 mi NE 15.0 mph - 0.00 in Thunderstorm Overcast
8:37 PM 66.2 °F 62.6 °F 88% 30.00 in 8.0 mi NE 12.7 mph 29.9 mph 0.00 in Thunderstorm Thunderstorm
8:53 PM 64.0 °F 62.1 °F 93% 29.98 in 2.0 mi East 12.7 mph 18.4 mph 0.17 in Rain , Thunderstorm Heavy Thunderstorms and Rain
9:10 PM 62.6 °F 60.8 °F 94% 30.00 in 4.0 mi East 13.8 mph 20.7 mph 0.10 in Rain , Thunderstorm Light Thunderstorms and Rain
9:31 PM 62.6 °F 60.8 °F 94% 29.97 in 5.0 mi East 11.5 mph - 0.10 in Rain , Thunderstorm Light Rain
9:53 PM 64.0 °F 60.1 °F 87% 29.91 in 10.0 mi East 15.0 mph 27.6 mph 0.10 in Thunderstorm Mostly Cloudy
10:12 PM 64.4 °F 59.0 °F 83% 29.95 in 10.0 mi WSW 6.9 mph 16.1 mph N/A Thunderstorm Mostly Cloudy
10:33 PM 64.4 °F 60.8 °F 88% 29.96 in 10.0 mi SSW 15.0 mph - 0.00 in   Mostly Cloudy
10:53 PM 64.0 °F 60.1 °F 87% 29.93 in 10.0 mi SSW 15.0 mph 26.5 mph 0.00 in   Mostly Cloudy
11:04 PM 64.4 °F 59.0 °F 83% 29.92 in 10.0 mi South 15.0 mph - N/A Thunderstorm Mostly Cloudy
11:19 PM 64.4 °F 59.0 °F 83% 29.92 in 10.0 mi SSW 12.7 mph - N/A   Overcast
11:53 PM 62.1 °F 57.9 °F 86% 29.91 in 10.0 mi South 12.7 mph 23.0 mph 0.00 in Rain Light Rain